Weather History for Wolf Point, MT

Change the Weather History Date:

Tuesday, December 11, 2012

  Actual Average Record
Temperature  
Mean Temperature 20 °F -  
Max Temperature 34 °F 28 °F 61 °F (2004)
Min Temperature 6 °F 4 °F -25 °F (2013)
Degree Days  
Heating Degree Days 45    
Cooling Degree Days 0    
Moisture  
Dew Point 17 °F    
Average Humidity 84    
Maximum Humidity 96    
Minimum Humidity 73    
Precipitation  
Precipitation T in 0.01 in 0.00 in (2014)
Month to date precipitation 0.03 0.10  
Year to date precipitation 10.18 11.98  
Sea Level Pressure  
Sea Level Pressure 29.69 in    
Wind  
Wind Speed 5 mph (East)    
Max Wind Speed 10 mph    
Max Gust Speed -    
Visibility 8 miles    
Events Fog , Snow    
T = Trace of Precipitation, MM = Missing Value Source: NWS Daily Summary

Daily Weather History Graph

Daily Weather History Graph

Search for Another Location

Airport:

Trip Planner

Search our weather history database for the weather conditions in past years. The results will help you decide how hot, cold, wet, or windy it might be!

Date:

Astronomy

Dec. 11, 2012 Rise Set
Actual Time 7:42 AM MST 4:08 PM MST
Civil Twilight 7:06 AM MST 4:44 PM MST
Nautical Twilight 6:27 AM MST 5:24 PM MST
Astronomical Twilight 5:49 AM MST 6:02 PM MST
Moon 5:36 AM MST (12/11) 2:53 PM MST (12/11)
Length of Visible Light 9h 38m
Length of Day
8h 25m
Waning Crescent, 4% of the Moon is Illuminated
Dec 11
Waning Crescent
Dec 13
New
Dec 19
First Quarter
Dec 28
Full
Jan 4
Last Quarter

Hourly Weather History & Observations

Time (MST) Temp. Windchill Dew Point Humidity Pressure Visibility Wind Dir Wind Speed Gust Speed Precip Events Conditions
12:53 AM 15.1 °F 4.2 °F 12.0 °F 88% 29.90 in 10.0 mi SW 8.1 mph - N/A   Clear
1:53 AM 10.0 °F -0.9 °F 7.0 °F 87% 29.89 in 10.0 mi WSW 6.9 mph - N/A   Clear
2:53 AM 7.0 °F -1.7 °F 6.1 °F 96% 29.89 in 10.0 mi SSW 4.6 mph - N/A   Clear
3:26 AM 6.8 °F - 5.0 °F 92% 29.78 in 2.5 mi Calm Calm - N/A   Scattered Clouds
3:29 AM 8.6 °F - 5.0 °F 85% 29.78 in 1.0 mi Calm Calm - N/A   Scattered Clouds
3:36 AM 6.8 °F -0.1 °F 5.0 °F 92% 29.78 in 0.5 mi WSW 3.5 mph - N/A Fog Light Freezing Fog
3:53 AM 6.1 °F -0.9 °F 3.0 °F 87% 29.88 in 4.0 mi West 3.5 mph - N/A   Overcast
4:53 AM 12.9 °F - 9.0 °F 84% 29.86 in 10.0 mi Calm Calm - N/A   Overcast
5:53 AM 12.9 °F 5.2 °F 10.0 °F 88% 29.84 in 10.0 mi East 4.6 mph - N/A   Overcast
6:53 AM 15.1 °F - 12.0 °F 88% 29.82 in 10.0 mi Calm Calm - N/A   Overcast
7:53 AM 15.1 °F 9.4 °F 12.0 °F 88% 29.81 in 10.0 mi NE 3.5 mph - N/A   Overcast
8:53 AM 16.0 °F 5.3 °F 12.9 °F 88% 29.77 in 10.0 mi ENE 8.1 mph - N/A   Overcast
9:53 AM 18.0 °F 9.8 °F 14.0 °F 84% 29.75 in 10.0 mi ENE 5.8 mph - N/A   Clear
10:53 AM 21.0 °F 13.4 °F 16.0 °F 81% 29.71 in 10.0 mi East 5.8 mph - N/A   Clear
11:53 AM 24.1 °F 18.2 °F 17.1 °F 75% 29.68 in 10.0 mi ENE 4.6 mph - N/A   Overcast
12:53 PM 26.1 °F 20.5 °F 19.0 °F 75% 29.64 in 10.0 mi ENE 4.6 mph - N/A   Overcast
1:50 PM 26.6 °F 20.0 °F 21.2 °F 80% 29.51 in 1.8 mi ENE 5.8 mph - 0.00 in Snow Light Snow
1:53 PM 27.0 °F 19.5 °F 21.9 °F 81% 29.61 in 1.8 mi ENE 6.9 mph - 0.00 in Snow Light Snow
2:04 PM 26.6 °F 22.6 °F 21.2 °F 80% 29.51 in 3.0 mi ENE 3.5 mph - 0.00 in Snow Light Snow
2:53 PM 28.0 °F 21.7 °F 23.0 °F 81% 29.58 in 10.0 mi East 5.8 mph - 0.00 in   Overcast
3:53 PM 28.0 °F 22.8 °F 24.1 °F 85% 29.58 in 10.0 mi NNE 4.6 mph - N/A   Overcast
4:53 PM 28.0 °F 21.7 °F 25.0 °F 88% 29.53 in 10.0 mi South 5.8 mph - N/A   Overcast
5:53 PM 34.0 °F 26.6 °F 26.1 °F 73% 29.52 in 10.0 mi WSW 9.2 mph - N/A   Overcast
6:53 PM 34.0 °F 26.0 °F 27.0 °F 75% 29.52 in 10.0 mi SW 10.4 mph - N/A   Overcast
7:53 PM 30.0 °F 24.1 °F 25.0 °F 82% 29.53 in 10.0 mi West 5.8 mph - N/A   Overcast
8:53 PM 30.9 °F 26.2 °F 26.1 °F 82% 29.54 in 10.0 mi West 4.6 mph - N/A   Overcast
9:53 PM 30.9 °F 23.5 °F 25.0 °F 79% 29.55 in 10.0 mi NW 8.1 mph - N/A   Overcast
10:53 PM 28.9 °F 21.1 °F 24.1 °F 82% 29.56 in 10.0 mi West 8.1 mph - N/A   Mostly Cloudy
11:53 PM 28.0 °F 24.2 °F 24.1 °F 85% 29.58 in 10.0 mi SSW 3.5 mph - N/A   Clear